Location: Bremen
(53.0793°N, 8.8017°E)
Time: 11:46:19
(UTC+02:00)

Altair - Pass Details

Date: 13 April 2024
Orbit: 1501 x 1682 km, 47.2° (Epoch: 17 May)

Event Time Altitude Azimuth Distance (km) Brightness Sun altitude
Rises 02:55:57 0° 277° (W) 4,806 9.9 -24.8°
Reaches altitude 10° 02:59:11 10° 273° (W) 3,794 9.3 -24.6°
Maximum altitude 03:08:17 51° 202° (SSW) 1,884 7.5 -24.0°
Drops below altitude 10° 03:17:04 10° 130° (SE) 3,670 9.4 -23.4°
Sets 03:20:09 0° 125° (SE) 4,639 10.0 -23.1°
